Weather in Dubovoye

Russia / Lipetsk Oblast     52°23′00″N   40°18′28″E
temp.,
°C
wind,
m/s
gust,
m/s
humid.,
%
clouds,
%
prec.,
mm/h
press.,
hPa
HPBL,
m
5 march, fri
fri500:000wsw51198100 0.2 1002473
03:000wnw5997100 0.4 1002534
06:00−3w5109499 0.0 1004372
09:00−4nnw489597 0.1 1007366
12:00−2nw348939 0.0 1010486
15:00−1nw358857 0.1 1012566
18:00−4wnw238951 0.0 101325
21:00−6wnw239036 0.0 101521
6 march, sat
sat600:00−7nw229370 0.0 101621
03:00−8nnw119385 0.0 101721
06:00−8e1193100 0.0 101621
09:00−7e1193100 0.0 101645
12:00−4ese1190100 0.1 1016246
15:00−3se1189100 0.1 1015262
18:00−4nw3496100 1.1 1015216
21:00−7nnw4794100 1.8 1016212
7 march, sun
sun700:00−9wnw479576 0.0 1017149
03:00−10w489248 0.0 1018143
06:00−11wsw510920 0.0 1017225
09:00−8sw7148622 0.0 1015552
12:00−4sw91575100 0.0 10111044
15:00−2sw101774100 0.0 10061235
18:00−2wsw111893100 0.9 10021203
21:00−4wnw71477100 2.0 1004961
8 march, mon
mon800:00−8wsw5107633 0.0 1005195
03:00−8sw5137921 0.0 1005293
06:00−6sw6147948 0.0 1003458
09:00−4sw7138967 0.0 1002876
12:00−4wnw91287100 0.4 10021240
15:00−6wnw9137570 0.5 10061160
18:00−9wnw6138436 0.0 1009487
21:00−10w4108718 0.0 1011224
9 march, tue
tue900:00−12w46890 0.0 1012108
03:00−13w34910 0.0 101356
06:00−14w239112 0.0 101321
09:00−11nw239353 0.0 1014134
12:00−9n3489100 0.1 1014459
15:00−8n4584100 0.2 1015753
18:00−11nnw4789100 0.0 1016437
21:00−15nnw489498 0.0 1020202